Volver al catálogo

BEIDOU 3M5

ActivoNavegaciónMEO
NORAD 43207·PAYLOAD·🇨🇳 China

Lanzado Feb 12, 2018 desde Xichang Satellite Launch Center

Loading…

Próximos Pases (próximas 24 horas)

TLE

ActualizadoSource: CelesTrak SupGP

Época: Sep 14, 2026, 00:00 UTC

1 43207C 18018A   26257.00000000  .00000000  00000+0  00000+0 0  2571
2 43207  56.7329  60.2248 0005630  44.1669  90.6755  1.86231226    10

Sigue BEIDOU 3M5 en tiempo real con AllMySat

Download on the App Store